Regional Weather Roundup
Issued by NWS

Current Version | Previous Version | Text Only | Print | Product List | Glossary On
Versions: 1 2 3 4 5 6 7 8 9 10 11 12 13 14 15 16 17 18 19 20 21 22 23 24 25 26 27 28 29 30 31 32 33 34 35 36 37 38 39 40 41 42 43 44 45 46 47 48 49 50
000
ASUS44 KFWD 040715
RWRTX
NORTH TEXAS HOURLY WEATHER ROUNDUP
NATIONAL WEATHER SERVICE FORT WORTH TX
200 AM CDT TUE AUG 04 2015

NOTE: "FAIR" INDICATES FEW OR NO CLOUDS BELOW 12,000 FEET WITH NO
SIGNIFICANT WEATHER AND/OR OBSTRUCTIONS TO VISIBILITY.

TXZ118-119-040800-
DALLAS/FORT WORTH METROPLEX

CITY           SKY/WX    TMP DP  RH WIND       PRES   REMARKS
DFW AIRPORT    PTCLDY    85  62  46 S6        29.90R
DALLAS LOVE    MOCLDY    87  61  41 S9        29.90R
FTW MEACHAM    CLEAR     84  62  47 S6        29.91R
DAL-EXECUTIVE  CLEAR     84  61  45 S6        29.91R
FTW-ALLIANCE   PTCLDY    80  63  55 S6        29.90S
FTW-NAS-JRB    CLEAR     85  61  44 S7        29.91R
FTW-SPINKS     CLEAR     80  61  52 S3        29.92S
ARLINGTON      CLEAR     81  62  52 S5        29.91R
GRAND PRAIRIE  CLEAR     84  64  50 S3        29.92R
ADDISON        CLEAR     86  64  46 S3        29.92S
MESQUITE       CLEAR     80  63  57 S3        29.91S
LANCASTER      CLEAR     76  63  62 CALM      29.92R
$$

TXZ091>094-102>105-117-120-121-131>134-040800-
NORTH CENTRAL TEXAS

CITY           SKY/WX    TMP DP  RH WIND       PRES   REMARKS
SHRMAN/DENISON PTCLDY    83  66  54 CALM      29.92F
GAINESVILLE    PTCLDY    79  65  60 CALM      29.93S
BOWIE          PTCLDY    77  63  62 SE3       29.92S
DECATUR        PTCLDY    82  59  44 SE7       29.92S
DENTON         CLEAR     79  65  62 S6        29.90S
MCKINNEY       PTCLDY    80  67  64 CALM      29.91S
GREENVILLE     CLEAR     75  64  69 CALM      29.92R
ROCKWALL       CLEAR     82  64  53 S5        29.90S
TERRELL        CLEAR     78  65  63 CALM      29.91R
WAXAHACHIE     CLEAR     78  64  61 SE3       29.93S
CLEBURNE         N/A     81  64  57 SE6       29.93S
GRANBURY       CLEAR     82  63  52 CALM      29.92S
$$

TXZ083>090-098>101-113>116-127>130-139>142-154-155-040800-
WESTERN NORTH TEXAS

CITY           SKY/WX    TMP DP  RH WIND       PRES   REMARKS
WICHITA FALLS  CLOUDY    81  65  58 S10       29.89S
WF-KICKAPOO    PTCLDY    80  66  61 CALM      29.91S
VERNON         MOCLDY    79  65  62 SE8       29.90F
ABILENE        PTCLDY    83  58  42 S15       29.95S
ABILENE-DYESS  MOCLDY    82  60  48 S9        29.94S
BRECKENRIDGE   CLEAR     83  58  41 S10       29.93S
GRAHAM         CLEAR     78  65  62 SE5       29.91R
MINERAL WELLS  CLEAR     77  65  66 S5        29.91S
STEPHENVILLE   CLEAR     77  63  61 CALM      29.97S
COMANCHE       PTCLDY    77  62  59 S7        29.95S
BROWNWOOD      MOCLDY    77  59  53 SE5       29.95F
COLEMAN        PTCLDY    80  60  51 S5        29.97S
BRADY          CLEAR     79  59  50 SE5       29.97R
$$

TXZ143>147-156>162-174-175-040800-
CENTRAL TEXAS

CITY           SKY/WX    TMP DP  RH WIND       PRES   REMARKS
WACO           CLEAR     83  67  58 S10       29.92R
HILLSBORO      CLEAR     81  59  47 SE6       29.92S
CORSICANA      CLEAR     81  64  56 S7        29.93R
MEXIA          CLEAR     76  67  72 SE12      29.92R
HEARNE         CLEAR     78  71  78 S5        29.92S
CAMERON        CLEAR     82  71  70 SW10      29.92R
TEMPLE         CLEAR     79  63  57 S7        29.93R
KILLEEN        CLEAR     78  62  57 S6        29.93R
KILLEEN-SKYLRK   N/A    N/A N/A N/A MISG        N/A
FORT HOOD      MOCLDY    80  65  59 S8        29.92R
GATESVILLE     CLEAR     79  63  57 CALM      29.95R
HAMILTON       CLEAR     77  60  56 MISG      29.95S
LAMPASAS       CLEAR     78  63  58 CALM      29.94S
$$

TXZ095>097-106>112-122>126-135>138-148>153-164>167-040800-
EAST TEXAS

CITY           SKY/WX    TMP DP  RH WIND       PRES   REMARKS
PARIS          PTCLDY    81  63  54 SE3       29.92S
SULPHUR SPRNGS CLEAR     82  63  52 SE5       29.94R
MOUNT PLEASANT CLEAR     77  64  64 CALM      29.92S
GILMER         CLEAR     74  65  74 CALM      29.91S
MINEOLA        CLEAR     73  70  88 CALM      29.92R
TYLER          CLEAR     79  65  62 S3        29.91S
LONGVIEW       CLEAR     78  68  71 CALM      29.90S
MARSHALL       CLEAR     78  70  74 CALM      29.92S
ATHENS         CLEAR     72  64  78 CALM      29.91R
PALESTINE      CLEAR     78  65  64 SE3       29.93R
JACKSONVILLE   CLEAR     82  62  51 S6        29.95R
HENDERSON      CLEAR     73  68  84 SW6       29.93R
CENTER         FAIR      75  71  86 CALM      29.91R
NACOGDOCHES    CLEAR     72  68  88 CALM      29.92R
LUFKIN         CLEAR     75  70  84 CALM      29.91S
$$

SUPPLEMENTAL OBSERVATIONS (CENTRAL)

CITY           SKY/WX    TMP DP  RH WIND       PRES   REMARKS
LAKE TEXOMA      N/A     81  66  61 SE2         N/A
CADDO GRASSLND   N/A     81  64  57 S3          N/A
PAT MAYSE LAKE   N/A     82  63  51 SE3         N/A
ATHENS           N/A     79  66  65 S3          N/A
LAKE LIMESTONE   N/A     75  66  73 CALM        N/A
MCGREGOR         N/A     79  64  61 S6          N/A
TEMPLE           N/A     79  68  69 S6          N/A
$$

SUPPLEMENTAL OBSERVATIONS (WEST)

CITY           SKY/WX    TMP DP  RH WIND       PRES   REMARKS
MILLERS CREEK    N/A     82  64  54 S14         N/A
POSSUM KINGDOM   N/A     81  59  47 S5          N/A
LBJ GRASSLAND    N/A     82  59  44 SE7         N/A
GRANBURY         N/A     82  63  51 CALM        N/A
COMANCHE         N/A     77  57  50 S6          N/A
HAMBY            N/A     82  57  42 S10         N/A
IVIE RESERVOIR   N/A     79  55  44 SE3         N/A
COLORADO BEND    N/A     81  63  54 SW6         N/A
$$

SUPPLEMENTAL OBSERVATIONS (EAST)

CITY           SKY/WX    TMP DP  RH WIND       PRES   REMARKS
CLARKSVILLE      N/A     79  64  61 E2          N/A
TEXARKANA        N/A     70  66  88 CALM        N/A
LINDEN           N/A     73  66  78 CALM        N/A
CADDO LAKE       N/A     70  68  94 CALM        N/A
GILMER           N/A     73  66  78 CALM        N/A
HENDERSON        N/A     72  66  83 SE2         N/A
LUFKIN           N/A     73  68  83 MISG        N/A
N SABINE NF      N/A     75  70  83 MISG        N/A
S SABINE NF      N/A     73  68  83 CALM        N/A
$$

SUPPLEMENTAL OBSERVATIONS ARE A COLLECTION OF AUTOMATED INSTRUMENTS
THAT ARE MAINTAINED BY A VARIETY OF FEDERAL AND STATE AGENCIES.
CERTAIN ELEMENTS...SUCH AS HUMIDITY VALUES AND SUSTAINED WIND
SPEEDS...MAY BE APPROXIMATED.



USA.gov is the U.S. government's official web portal to all federal, state and local government web resources and services.